Hourly Weather Kozliki

Today, 21 October, Wednesday

Time Temperature Precipitation Wind Pressure Humidity
00:00 +7°C° 0 mm 5 mps 750 mmHg 80%
01:00 +7°C° 0 mm 5 mps 749 mmHg 82%
02:00 +7°C° 0 mm 4 mps 749 mmHg 84%
03:00 +6°C° 0 mm 4 mps 748 mmHg 84%
04:00 +6°C° 0 mm 4 mps 748 mmHg 83%
05:00 +6°C° 0 mm 5 mps 747 mmHg 83%
06:00 +6°C° 0 mm 5 mps 747 mmHg 80%
07:00 +7°C° 0 mm 5 mps 747 mmHg 78%
08:00 +7°C° 0 mm 4 mps 747 mmHg 76%
09:00 +7°C° 0.2 mm 4 mps 747 mmHg 77%
10:00 +7°C° 0.2 mm 4 mps 747 mmHg 77%
11:00 +7°C° 0.2 mm 4 mps 747 mmHg 78%
12:00 +8°C° 0 mm 4 mps 747 mmHg 77%
13:00 +8°C° 0 mm 4 mps 747 mmHg 76%
14:00 +10°C° 0 mm 3 mps 747 mmHg 75%
15:00 +10°C° 0 mm 3 mps 746 mmHg 76%
16:00 +10°C° 0 mm 3 mps 746 mmHg 76%
17:00 +10°C° 0 mm 3 mps 746 mmHg 76%
18:00 +10°C° 0.2 mm 3 mps 746 mmHg 77%
19:00 +9°C° 0.2 mm 3 mps 746 mmHg 79%
20:00 +9°C° 0.2 mm 2 mps 746 mmHg 80%
21:00 +9°C° 0 mm 3 mps 746 mmHg 78%
22:00 +9°C° 0 mm 3 mps 746 mmHg 76%
23:00 +10°C° 0 mm 3 mps 746 mmHg 74%

Tomorrow, 22 October, Thursday

Time Temperature Precipitation Wind Pressure Humidity
00:00 +10°C° 0 mm 4 mps 746 mmHg 75%
01:00 +10°C° 0 mm 4 mps 746 mmHg 76%
02:00 +9°C° 0 mm 5 mps 746 mmHg 76%
03:00 +8°C° 0 mm 4 mps 746 mmHg 80%
04:00 +8°C° 0 mm 4 mps 745 mmHg 83%
05:00 +7°C° 0 mm 4 mps 745 mmHg 86%
06:00 +7°C° 0 mm 4 mps 745 mmHg 86%
07:00 +8°C° 0 mm 4 mps 745 mmHg 85%
08:00 +8°C° 0 mm 5 mps 745 mmHg 84%
09:00 +10°C° 0 mm 5 mps 745 mmHg 77%
10:00 +11°C° 0 mm 6 mps 746 mmHg 70%
11:00 +14°C° 0 mm 7 mps 746 mmHg 64%
12:00 +15°C° 0 mm 7 mps 746 mmHg 63%
13:00 +16°C° 0 mm 7 mps 746 mmHg 62%
14:00 +17°C° 0 mm 7 mps 746 mmHg 61%
15:00 +16°C° 0 mm 6 mps 746 mmHg 65%
16:00 +15°C° 0 mm 5 mps 746 mmHg 69%
17:00 +14°C° 0 mm 4 mps 746 mmHg 74%
18:00 +14°C° 0 mm 4 mps 746 mmHg 77%
19:00 +13°C° 0 mm 4 mps 746 mmHg 81%
20:00 +12°C° 0 mm 3 mps 746 mmHg 84%
21:00 +12°C° 0 mm 3 mps 746 mmHg 85%
22:00 +12°C° 0 mm 3 mps 746 mmHg 86%
23:00 +12°C° 0 mm 3 mps 746 mmHg 88%

Day after tomorrow, 23 October, Friday

Time Temperature Precipitation Wind Pressure Humidity
00:00 +12°C° 0 mm 3 mps 746 mmHg 89%
01:00 +11°C° 0 mm 3 mps 746 mmHg 90%
02:00 +11°C° 0 mm 3 mps 746 mmHg 92%
03:00 +11°C° 0 mm 3 mps 746 mmHg 91%
04:00 +11°C° 0 mm 3 mps 746 mmHg 90%
05:00 +11°C° 0 mm 3 mps 745 mmHg 90%
06:00 +12°C° 0 mm 4 mps 745 mmHg 87%
07:00 +12°C° 0 mm 4 mps 745 mmHg 85%
08:00 +12°C° 0 mm 5 mps 744 mmHg 82%
09:00 +13°C° 0 mm 5 mps 744 mmHg 79%
10:00 +14°C° 0 mm 5 mps 744 mmHg 75%
11:00 +14°C° 0 mm 5 mps 744 mmHg 72%
12:00 +14°C° 0.1 mm 5 mps 744 mmHg 75%
13:00 +14°C° 0.1 mm 5 mps 744 mmHg 79%
14:00 +14°C° 0.1 mm 5 mps 744 mmHg 82%
15:00 +13°C° 0.2 mm 4 mps 743 mmHg 84%
16:00 +13°C° 0.2 mm 4 mps 743 mmHg 85%
17:00 +13°C° 0.2 mm 4 mps 743 mmHg 87%
18:00 +12°C° 0 mm 3 mps 743 mmHg 89%
19:00 +12°C° 0 mm 3 mps 744 mmHg 90%
20:00 +11°C° 0 mm 3 mps 744 mmHg 92%
21:00 +12°C° 0 mm 2 mps 744 mmHg 93%
22:00 +12°C° 0 mm 2 mps 744 mmHg 94%
23:00 +10°C° 0 mm 2 mps 744 mmHg 95%

24 October, Saturday

Time Temperature Precipitation Wind Pressure Humidity
00:00 +10°C° 0 mm 2 mps 744 mmHg 95%
01:00 +10°C° 0 mm 2 mps 744 mmHg 96%
02:00 +10°C° 0 mm 2 mps 744 mmHg 96%
03:00 +11°C° 0 mm 1 mps 744 mmHg 96%
04:00 +11°C° 0 mm 1 mps 744 mmHg 96%
05:00 +11°C° 0 mm 1 mps 744 mmHg 96%
06:00 +11°C° 0.2 mm 1 mps 743 mmHg 97%
07:00 +11°C° 0.2 mm 1 mps 743 mmHg 97%
08:00 +12°C° 0.2 mm 1 mps 743 mmHg 97%
09:00 +12°C° 0.3 mm 1 mps 743 mmHg 95%
10:00 +13°C° 0.3 mm 1 mps 743 mmHg 92%
11:00 +14°C° 0.3 mm 1 mps 743 mmHg 90%
12:00 +14°C° 0.2 mm 2 mps 743 mmHg 88%
13:00 +13°C° 0.2 mm 3 mps 743 mmHg 87%
14:00 +14°C° 0.2 mm 4 mps 743 mmHg 85%
15:00 +13°C° 0.2 mm 5 mps 743 mmHg 84%
16:00 +13°C° 0.2 mm 5 mps 743 mmHg 82%
17:00 +11°C° 0.2 mm 6 mps 744 mmHg 81%
18:00 +12°C° 0 mm 5 mps 744 mmHg 82%
19:00 +10°C° 0 mm 5 mps 745 mmHg 83%
20:00 +10°C° 0 mm 4 mps 745 mmHg 84%
21:00 +8°C° 0 mm 4 mps 746 mmHg 85%
22:00 +8°C° 0 mm 4 mps 746 mmHg 85%
23:00 +7°C° 0 mm 4 mps 747 mmHg 86%

25 October, Sunday

Time Temperature Precipitation Wind Pressure Humidity
00:00 +8°C° 0 mm 3 mps 747 mmHg 88%
01:00 +7°C° 0 mm 3 mps 747 mmHg 89%
02:00 +5°C° 0 mm 3 mps 747 mmHg 91%
03:00 +5°C° 0 mm 3 mps 748 mmHg 92%
04:00 +6°C° 0 mm 2 mps 748 mmHg 92%
05:00 +5°C° 0 mm 2 mps 748 mmHg 93%
06:00 +5°C° 0 mm 2 mps 748 mmHg 93%
07:00 +5°C° 0 mm 2 mps 748 mmHg 93%
08:00 +5°C° 0 mm 2 mps 749 mmHg 92%
09:00 +7°C° 0 mm 2 mps 749 mmHg 85%
10:00 +9°C° 0 mm 2 mps 749 mmHg 78%
11:00 +10°C° 0 mm 2 mps 749 mmHg 71%
12:00 +11°C° 0 mm 3 mps 749 mmHg 68%
13:00 +12°C° 0 mm 3 mps 749 mmHg 65%
14:00 +12°C° 0 mm 3 mps 748 mmHg 63%
15:00 +12°C° 0 mm 3 mps 748 mmHg 67%
16:00 +11°C° 0 mm 3 mps 748 mmHg 72%
17:00 +10°C° 0 mm 3 mps 748 mmHg 76%
18:00 +10°C° 0 mm 3 mps 748 mmHg 79%
19:00 +9°C° 0 mm 3 mps 748 mmHg 81%
20:00 +9°C° 0 mm 3 mps 748 mmHg 83%
21:00 +9°C° 0 mm 3 mps 748 mmHg 84%
22:00 +8°C° 0 mm 3 mps 748 mmHg 86%
23:00 +7°C° 0 mm 4 mps 748 mmHg 87%

26 October, Monday

Time Temperature Precipitation Wind Pressure Humidity
00:00 +7°C° 0 mm 4 mps 748 mmHg 88%
01:00 +7°C° 0 mm 4 mps 748 mmHg 89%
02:00 +7°C° 0 mm 4 mps 748 mmHg 90%
03:00 +7°C° 0 mm 4 mps 748 mmHg 90%
04:00 +7°C° 0 mm 4 mps 748 mmHg 90%
05:00 +6°C° 0 mm 4 mps 747 mmHg 90%
06:00 +6°C° 0 mm 4 mps 747 mmHg 89%
07:00 +6°C° 0 mm 4 mps 747 mmHg 88%
08:00 +6°C° 0 mm 4 mps 747 mmHg 88%
09:00 +8°C° 0 mm 5 mps 747 mmHg 82%
10:00 +9°C° 0 mm 5 mps 747 mmHg 77%
11:00 +12°C° 0 mm 5 mps 747 mmHg 71%
12:00 +12°C° 0 mm 5 mps 747 mmHg 69%
13:00 +13°C° 0 mm 5 mps 746 mmHg 67%
14:00 +14°C° 0 mm 5 mps 746 mmHg 65%
15:00 +13°C° 0 mm 5 mps 746 mmHg 68%
16:00 +13°C° 0 mm 5 mps 746 mmHg 71%
17:00 +12°C° 0 mm 5 mps 746 mmHg 74%
18:00 +12°C° 0 mm 5 mps 746 mmHg 75%
19:00 +10°C° 0 mm 5 mps 746 mmHg 76%
20:00 +10°C° 0 mm 5 mps 746 mmHg 77%
21:00 +9°C° 0 mm 5 mps 746 mmHg 78%
22:00 +9°C° 0 mm 5 mps 746 mmHg 79%
23:00 +9°C° 0 mm 5 mps 746 mmHg 79%

27 October, Tuesday

Time Temperature Precipitation Wind Pressure Humidity
00:00 +8°C° 0 mm 5 mps 745 mmHg 79%
01:00 +8°C° 0 mm 5 mps 745 mmHg 79%
02:00 +8°C° 0 mm 5 mps 745 mmHg 78%
03:00 +8°C° 0 mm 5 mps 745 mmHg 77%
04:00 +8°C° 0 mm 5 mps 745 mmHg 76%
05:00 +8°C° 0 mm 5 mps 745 mmHg 75%
06:00 +8°C° 0 mm 5 mps 745 mmHg 76%
07:00 +8°C° 0 mm 5 mps 745 mmHg 77%
08:00 +8°C° 0 mm 5 mps 745 mmHg 78%
09:00 +9°C° 0 mm 5 mps 746 mmHg 76%
10:00 +10°C° 0 mm 5 mps 746 mmHg 74%
11:00 +12°C° 0 mm 5 mps 746 mmHg 72%
12:00 +13°C° 0 mm 4 mps 746 mmHg 70%
13:00 +13°C° 0 mm 4 mps 746 mmHg 69%
14:00 +14°C° 0 mm 4 mps 746 mmHg 67%
15:00 +13°C° 0 mm 4 mps 747 mmHg 71%
16:00 +13°C° 0 mm 3 mps 747 mmHg 75%
17:00 +12°C° 0 mm 3 mps 747 mmHg 78%
18:00 +11°C° 0 mm 3 mps 747 mmHg 81%
19:00 +11°C° 0 mm 3 mps 747 mmHg 83%
20:00 +10°C° 0 mm 3 mps 748 mmHg 86%
21:00 +10°C° 0 mm 3 mps 748 mmHg 87%
22:00 +9°C° 0 mm 3 mps 748 mmHg 89%
23:00 +9°C° 0 mm 2 mps 749 mmHg 91%
Show more